KLM43R EHAM-LHBP

Flight info

Callsign KLM43R
Flight time 1h 34m
Altitude 37000
Route ARNEM L620 HMM DCT NOMKA DCT OMELO DCT ODNEM DCT NIT M748 ARFOX
Aircraft B738/M-SDE2E3FGHIRWXY/LB1

Departure

Time 2026-05-05 06:37
Airport Amsterdam Airport Schiphol (EHAM)

Arrival

Time 2026-05-05 08:12
Airport Budapest Liszt Ferenc International Airport (LHBP)
Time Latitude Longitude Altitude Speed Heading
2026-05-05 06:01 52.30895 4.77367 -2 ft 0 kts
2026-05-05 06:25 52.30889 4.77366 -2 ft 3 kts
2026-05-05 06:25 52.30868 4.77368 -2 ft 3 kts 352°
2026-05-05 06:26 52.30851 4.77371 -2 ft 3 kts 36°
2026-05-05 06:26 52.30843 4.77354 -2 ft 3 kts 82°
2026-05-05 06:26 52.30842 4.77337 -2 ft 0 kts 79°
2026-05-05 06:29 52.30842 4.77338 -2 ft 0 kts 79°
2026-05-05 06:29 52.30840 4.77361 -2 ft 4 kts 98°
2026-05-05 06:29 52.30837 4.77413 -2 ft 5 kts 94°
2026-05-05 06:30 52.30835 4.77483 -2 ft 7 kts 93°
2026-05-05 06:30 52.30840 4.77570 -2 ft 8 kts 62°
2026-05-05 06:30 52.30874 4.77604 -2 ft 9 kts 16°
2026-05-05 06:30 52.30941 4.77614 -2 ft 11 kts
2026-05-05 06:31 52.31020 4.77622 -2 ft 12 kts
2026-05-05 06:31 52.31108 4.77628 -2 ft 13 kts
2026-05-05 06:31 52.31204 4.77638 -2 ft 14 kts
2026-05-05 06:31 52.31309 4.77649 -2 ft 16 kts
2026-05-05 06:32 52.31420 4.77651 -2 ft 16 kts 350°
2026-05-05 06:32 52.31517 4.77550 -2 ft 17 kts 316°
2026-05-05 06:32 52.31576 4.77380 -2 ft 18 kts 276°
2026-05-05 06:32 52.31571 4.77168 -2 ft 19 kts 267°
2026-05-05 06:33 52.31563 4.76945 -2 ft 19 kts 266°
2026-05-05 06:33 52.31555 4.76725 -2 ft 19 kts 266°
2026-05-05 06:33 52.31548 4.76505 -1 ft 19 kts 267°
2026-05-05 06:33 52.31541 4.76279 -2 ft 20 kts 266°
2026-05-05 06:34 52.31533 4.76049 -1 ft 20 kts 266°
2026-05-05 06:34 52.31524 4.75823 -2 ft 20 kts 266°
2026-05-05 06:34 52.31517 4.75592 -2 ft 20 kts 267°
2026-05-05 06:34 52.31509 4.75361 -2 ft 21 kts 266°
2026-05-05 06:35 52.31501 4.75136 -2 ft 20 kts 267°
2026-05-05 06:35 52.31494 4.74912 -2 ft 20 kts 267°
2026-05-05 06:35 52.31492 4.74723 -2 ft 15 kts 284°
2026-05-05 06:35 52.31577 4.74661 -2 ft 14 kts 356°
2026-05-05 06:36 52.31651 4.74697 -1 ft 10 kts 41°
2026-05-05 06:36 52.31669 4.74808 -2 ft 8 kts 86°
2026-05-05 06:36 52.31670 4.74820 -2 ft 8 kts 87°
2026-05-05 06:36 52.31681 4.75170 -3 ft 59 kts 86°
2026-05-05 06:37 52.31715 4.76155 -1 ft 114 kts 87°
2026-05-05 06:37 52.31770 4.77717 8 ft 158 kts 86°
2026-05-05 06:37 52.31832 4.79517 526 ft 162 kts 86°
2026-05-05 06:37 52.31916 4.81463 935 ft 180 kts 84°
2026-05-05 06:38 52.32040 4.83568 1430 ft 193 kts 84°
2026-05-05 06:38 52.32095 4.85862 1848 ft 211 kts 89°
2026-05-05 06:38 52.31820 4.88298 2256 ft 235 kts 112°
2026-05-05 06:38 52.31061 4.90721 3046 ft 246 kts 116°
2026-05-05 06:39 52.30303 4.93314 3800 ft 257 kts 113°
2026-05-05 06:39 52.29577 4.96035 4668 ft 264 kts 111°
2026-05-05 06:39 52.28998 4.98908 5562 ft 268 kts 105°
2026-05-05 06:39 52.28515 5.01885 6443 ft 273 kts 104°
2026-05-05 06:40 52.28040 5.04920 7306 ft 278 kts 104°
2026-05-05 06:40 52.27530 5.07988 8163 ft 283 kts 105°
2026-05-05 06:40 52.26986 5.11103 9019 ft 287 kts 106°
2026-05-05 06:40 52.26424 5.14256 9861 ft 292 kts 106°
2026-05-05 06:41 52.25849 5.17488 10481 ft 305 kts 106°
2026-05-05 06:41 52.25246 5.20915 10951 ft 322 kts 106°
2026-05-05 06:41 52.24623 5.24525 11393 ft 339 kts 103°
2026-05-05 06:41 52.24286 5.28397 12032 ft 348 kts 95°
2026-05-05 06:42 52.24080 5.32372 12799 ft 354 kts 95°
2026-05-05 06:42 52.23875 5.36392 13590 ft 358 kts 95°
2026-05-05 06:42 52.23670 5.40462 14378 ft 362 kts 95°
2026-05-05 06:42 52.23463 5.44581 15145 ft 367 kts 95°
2026-05-05 06:43 52.23252 5.48750 15901 ft 371 kts 95°
2026-05-05 06:43 52.22890 5.52939 16651 ft 375 kts 104°
2026-05-05 06:43 52.22056 5.56983 17381 ft 379 kts 111°
2026-05-05 06:43 52.21108 5.60961 18078 ft 383 kts 111°
2026-05-05 06:44 52.20102 5.65068 18772 ft 387 kts 112°
2026-05-05 06:44 52.19105 5.69110 19434 ft 392 kts 112°
2026-05-05 06:44 52.18088 5.73258 20091 ft 395 kts 112°
2026-05-05 06:44 52.17070 5.77438 20736 ft 399 kts 112°
2026-05-05 06:45 52.16042 5.81664 21354 ft 403 kts 112°
2026-05-05 06:45 52.15002 5.85926 21946 ft 406 kts 112°
2026-05-05 06:45 52.13949 5.90215 22517 ft 410 kts 112°
2026-05-05 06:45 52.12883 5.94544 23073 ft 413 kts 112°
2026-05-05 06:46 52.11806 5.98903 23614 ft 417 kts 112°
2026-05-05 06:46 52.10720 6.03300 24133 ft 420 kts 113°
2026-05-05 06:46 52.09725 6.07792 24622 ft 424 kts 106°
2026-05-05 06:46 52.09140 6.12513 25107 ft 428 kts 101°
2026-05-05 06:47 52.08630 6.17291 25575 ft 430 kts 101°
2026-05-05 06:47 52.08136 6.22108 26020 ft 433 kts 100°
2026-05-05 06:47 52.07645 6.26955 26452 ft 436 kts 101°
2026-05-05 06:47 52.07142 6.31826 26870 ft 438 kts 101°
2026-05-05 06:48 52.06632 6.36665 27253 ft 440 kts 101°
2026-05-05 06:48 52.06107 6.41578 27629 ft 443 kts 101°
2026-05-05 06:48 52.05577 6.46537 27995 ft 445 kts 101°
2026-05-05 06:48 52.05047 6.51508 28342 ft 447 kts 101°
2026-05-05 06:49 52.04515 6.56495 28684 ft 449 kts 101°
2026-05-05 06:49 52.03978 6.61510 29034 ft 451 kts 101°
2026-05-05 06:49 52.03437 6.66531 29350 ft 453 kts 101°
2026-05-05 06:49 52.02888 6.71580 29659 ft 454 kts 101°
2026-05-05 06:50 52.02332 6.76640 29898 ft 458 kts 102°
2026-05-05 06:50 52.01671 6.81699 30201 ft 458 kts 105°
2026-05-05 06:50 52.00857 6.86697 30546 ft 458 kts 107°
2026-05-05 06:50 51.99976 6.91671 30891 ft 458 kts 108°
2026-05-05 06:51 51.99123 6.96651 31255 ft 457 kts 107°
2026-05-05 06:51 51.98333 7.01645 31594 ft 458 kts 106°
2026-05-05 06:51 51.97575 7.06661 31934 ft 458 kts 106°
2026-05-05 06:51 51.96802 7.11660 32279 ft 457 kts 107°
2026-05-05 06:52 51.95943 7.16627 32638 ft 456 kts 109°
2026-05-05 06:52 51.95007 7.21470 32964 ft 455 kts 110°
2026-05-05 06:52 51.94035 7.26353 33292 ft 455 kts 110°
2026-05-05 06:52 51.93094 7.31248 33614 ft 455 kts 109°
2026-05-05 06:53 51.92192 7.36154 33933 ft 454 kts 109°
2026-05-05 06:53 51.91301 7.41070 34242 ft 454 kts 109°
2026-05-05 06:53 51.90399 7.45971 34538 ft 454 kts 109°
2026-05-05 06:53 51.89475 7.50868 34830 ft 453 kts 109°
2026-05-05 06:54 51.88547 7.55737 35111 ft 453 kts 109°
2026-05-05 06:54 51.87618 7.60614 35377 ft 453 kts 109°
2026-05-05 06:54 51.86694 7.65487 35647 ft 453 kts 109°
2026-05-05 06:54 51.85772 7.70366 35900 ft 453 kts 109°
2026-05-05 06:55 51.84934 7.75291 36157 ft 454 kts 105°
2026-05-05 06:55 51.84282 7.80285 36399 ft 455 kts 102°
2026-05-05 06:55 51.83717 7.85346 36507 ft 459 kts 102°
2026-05-05 06:56 51.82431 7.95500 36870 ft 460 kts 105°
2026-05-05 06:56 51.80982 8.05545 36936 ft 463 kts 105°
2026-05-05 06:57 51.79604 8.15695 36938 ft 461 kts 104°
2026-05-05 06:57 51.78233 8.25785 36932 ft 458 kts 104°
2026-05-05 06:58 51.76825 8.35813 36931 ft 457 kts 105°
2026-05-05 06:58 51.75422 8.45836 36930 ft 458 kts 104°
2026-05-05 06:59 51.74017 8.55858 36930 ft 458 kts 105°
2026-05-05 06:59 51.72604 8.65817 36930 ft 458 kts 105°
2026-05-05 07:00 51.71173 8.75844 36931 ft 458 kts 105°
2026-05-05 07:00 51.69738 8.85844 36934 ft 458 kts 105°
2026-05-05 07:01 51.68291 8.95849 36933 ft 458 kts 105°
2026-05-05 07:01 51.66835 9.05853 36933 ft 458 kts 105°
2026-05-05 07:02 51.65380 9.15797 36937 ft 458 kts 105°
2026-05-05 07:02 51.63896 9.25861 36936 ft 459 kts 105°
2026-05-05 07:03 51.62424 9.35785 36936 ft 459 kts 105°
2026-05-05 07:03 51.60933 9.45782 36937 ft 459 kts 105°
2026-05-05 07:04 51.59431 9.55777 36931 ft 459 kts 106°
2026-05-05 07:04 51.57921 9.65765 36931 ft 459 kts 106°
2026-05-05 07:05 51.56402 9.75752 36931 ft 459 kts 106°
2026-05-05 07:05 51.54877 9.85718 36931 ft 460 kts 106°
2026-05-05 07:06 51.53341 9.95692 36930 ft 459 kts 106°
2026-05-05 07:06 51.51807 10.05584 36934 ft 459 kts 106°
2026-05-05 07:07 51.50257 10.15533 36929 ft 459 kts 106°
2026-05-05 07:07 51.48698 10.25476 36930 ft 459 kts 106°
2026-05-05 07:08 51.47129 10.35408 36930 ft 459 kts 106°
2026-05-05 07:08 51.45553 10.45326 36928 ft 458 kts 106°
2026-05-05 07:09 51.43976 10.55245 36932 ft 459 kts 106°
2026-05-05 07:09 51.42415 10.65165 36931 ft 458 kts 106°
2026-05-05 07:10 51.40843 10.75059 36928 ft 458 kts 106°
2026-05-05 07:10 51.39254 10.84951 36937 ft 459 kts 106°
2026-05-05 07:11 51.37672 10.94784 36935 ft 458 kts 107°
2026-05-05 07:11 51.36072 11.04670 36930 ft 458 kts 107°
2026-05-05 07:12 51.34463 11.14538 36929 ft 458 kts 107°
2026-05-05 07:12 51.32848 11.24392 36931 ft 458 kts 107°
2026-05-05 07:13 51.31225 11.34239 36922 ft 458 kts 107°
2026-05-05 07:13 51.29592 11.44084 36933 ft 458 kts 107°
2026-05-05 07:14 51.28228 11.52259 36938 ft 458 kts 107°
2026-05-05 07:14 51.26312 11.63695 36933 ft 458 kts 107°
2026-05-05 07:15 51.24934 11.71869 36936 ft 458 kts 107°
2026-05-05 07:15 51.23268 11.81696 36932 ft 458 kts 107°
2026-05-05 07:16 51.21596 11.91504 36931 ft 458 kts 107°
2026-05-05 07:16 51.19914 12.01318 36930 ft 458 kts 107°
2026-05-05 07:17 51.18229 12.11097 36932 ft 457 kts 107°
2026-05-05 07:17 51.16541 12.20825 36935 ft 458 kts 107°
2026-05-05 07:18 51.14829 12.30656 36926 ft 457 kts 107°
2026-05-05 07:18 51.13131 12.40341 36920 ft 457 kts 107°
2026-05-05 07:19 51.11414 12.50088 36921 ft 457 kts 107°
2026-05-05 07:19 51.09689 12.59824 36922 ft 457 kts 108°
2026-05-05 07:20 51.07954 12.69562 36918 ft 457 kts 108°
2026-05-05 07:20 51.06210 12.79299 36919 ft 457 kts 108°
2026-05-05 07:21 51.04463 12.89006 36927 ft 457 kts 108°
2026-05-05 07:21 51.02706 12.98710 36921 ft 457 kts 108°
2026-05-05 07:22 51.00943 13.08395 36918 ft 456 kts 108°
2026-05-05 07:22 50.99169 13.18092 36919 ft 456 kts 108°
2026-05-05 07:23 50.97403 13.27696 36910 ft 457 kts 108°
2026-05-05 07:23 50.95612 13.37382 36905 ft 457 kts 108°
2026-05-05 07:24 50.93816 13.47042 36900 ft 456 kts 108°
2026-05-05 07:24 50.92013 13.56697 36897 ft 456 kts 108°
2026-05-05 07:25 50.90202 13.66339 36893 ft 456 kts 108°
2026-05-05 07:25 50.88382 13.75978 36895 ft 456 kts 108°
2026-05-05 07:26 50.86566 13.85546 36893 ft 456 kts 108°
2026-05-05 07:26 50.84710 13.95161 36892 ft 455 kts 111°
2026-05-05 07:26 50.83399 13.99693 36901 ft 452 kts 122°
2026-05-05 07:27 50.81598 14.03762 36911 ft 450 kts 133°
2026-05-05 07:27 50.77351 14.11059 36895 ft 452 kts 135°
2026-05-05 07:28 50.73035 14.18278 36902 ft 451 kts 135°
2026-05-05 07:28 50.68780 14.25467 36891 ft 451 kts 135°
2026-05-05 07:29 50.64497 14.32681 36889 ft 450 kts 135°
2026-05-05 07:29 50.60200 14.39871 36878 ft 450 kts 135°
2026-05-05 07:30 50.55909 14.47043 36882 ft 450 kts 135°
2026-05-05 07:30 50.49461 14.57784 36882 ft 450 kts 135°
2026-05-05 07:31 50.45147 14.64942 36880 ft 450 kts 135°
2026-05-05 07:31 50.40839 14.72071 36890 ft 450 kts 135°
2026-05-05 07:32 50.36518 14.79202 36908 ft 451 kts 135°
2026-05-05 07:32 50.32220 14.86273 36907 ft 451 kts 135°
2026-05-05 07:33 50.27896 14.93369 36899 ft 450 kts 135°
2026-05-05 07:33 50.23568 15.00448 36907 ft 451 kts 135°
2026-05-05 07:34 50.19226 15.07532 36894 ft 451 kts 135°
2026-05-05 07:34 50.14881 15.14605 36890 ft 451 kts 135°
2026-05-05 07:35 50.10537 15.21653 36898 ft 451 kts 135°
2026-05-05 07:35 50.06184 15.28694 36889 ft 452 kts 135°
2026-05-05 07:36 50.01824 15.35731 36906 ft 451 kts 135°
2026-05-05 07:36 49.97455 15.42760 36906 ft 452 kts 135°
2026-05-05 07:37 49.93087 15.49768 36905 ft 451 kts 135°
2026-05-05 07:37 49.88723 15.56751 36910 ft 451 kts 136°
2026-05-05 07:38 49.84342 15.63739 36915 ft 451 kts 136°
2026-05-05 07:38 49.79958 15.70716 36905 ft 451 kts 136°
2026-05-05 07:39 49.75576 15.77670 36902 ft 452 kts 136°
2026-05-05 07:39 49.71212 15.84577 36901 ft 451 kts 136°
2026-05-05 07:40 49.66819 15.91511 36902 ft 451 kts 136°
2026-05-05 07:40 49.62419 15.98433 36903 ft 451 kts 136°
2026-05-05 07:41 49.58020 16.05337 36898 ft 452 kts 136°
2026-05-05 07:41 49.53609 16.12242 36897 ft 452 kts 136°
2026-05-05 07:42 49.49205 16.19115 36909 ft 451 kts 136°
2026-05-05 07:42 49.44788 16.25991 36912 ft 452 kts 136°
2026-05-05 07:43 49.40370 16.32849 36912 ft 451 kts 136°
2026-05-05 07:43 49.35950 16.39693 36905 ft 451 kts 136°
2026-05-05 07:44 49.31549 16.46489 36916 ft 452 kts 136°
2026-05-05 07:44 49.27117 16.53313 36907 ft 451 kts 136°
2026-05-05 07:45 49.22689 16.60114 36910 ft 451 kts 136°
2026-05-05 07:45 49.18244 16.66921 36899 ft 451 kts 136°
2026-05-05 07:46 49.13804 16.73704 36910 ft 452 kts 136°
2026-05-05 07:46 49.09374 16.80451 36906 ft 451 kts 136°
2026-05-05 07:47 49.04926 16.87211 36912 ft 451 kts 136°
2026-05-05 07:47 49.00476 16.93953 36906 ft 451 kts 136°
2026-05-05 07:48 48.96015 17.00694 36915 ft 451 kts 136°
2026-05-05 07:48 48.91553 17.07420 36920 ft 452 kts 136°
2026-05-05 07:49 48.87090 17.14125 36914 ft 451 kts 136°
2026-05-05 07:49 48.82647 17.20902 36923 ft 452 kts 134°
2026-05-05 07:50 48.78385 17.27835 36937 ft 452 kts 134°
2026-05-05 07:50 48.76232 17.31311 36629 ft 455 kts 134°
2026-05-05 07:50 48.74017 17.34812 35670 ft 460 kts 135°
2026-05-05 07:51 48.71801 17.38275 34879 ft 456 kts 135°
2026-05-05 07:51 48.69599 17.41729 34057 ft 455 kts 134°
2026-05-05 07:51 48.67418 17.45177 33249 ft 453 kts 134°
2026-05-05 07:51 48.65263 17.48597 32790 ft 446 kts 134°
2026-05-05 07:52 48.63116 17.51992 32238 ft 445 kts 134°
2026-05-05 07:52 48.60977 17.55357 31676 ft 442 kts 134°
2026-05-05 07:52 48.58851 17.58689 31134 ft 439 kts 134°
2026-05-05 07:52 48.56734 17.62006 30568 ft 436 kts 134°
2026-05-05 07:53 48.54645 17.65280 30024 ft 431 kts 134°
2026-05-05 07:53 48.52576 17.68520 29450 ft 426 kts 134°
2026-05-05 07:53 48.50527 17.71727 28900 ft 422 kts 134°
2026-05-05 07:53 48.48518 17.74864 28343 ft 418 kts 134°
2026-05-05 07:54 48.46501 17.78009 27783 ft 415 kts 134°
2026-05-05 07:54 48.44497 17.81128 27224 ft 412 kts 134°
2026-05-05 07:54 48.42510 17.84221 26660 ft 410 kts 134°
2026-05-05 07:54 48.40535 17.87289 26096 ft 407 kts 134°
2026-05-05 07:55 48.38573 17.90333 25527 ft 403 kts 134°
2026-05-05 07:55 48.36633 17.93343 24964 ft 398 kts 134°
2026-05-05 07:55 48.34714 17.96313 24409 ft 393 kts 134°
2026-05-05 07:55 48.32819 17.99243 23850 ft 389 kts 134°
2026-05-05 07:56 48.30938 18.02146 23294 ft 386 kts 134°
2026-05-05 07:56 48.29076 18.05021 22738 ft 382 kts 134°
2026-05-05 07:56 48.27258 18.07920 22188 ft 379 kts 133°
2026-05-05 07:56 48.25513 18.10867 21634 ft 376 kts 131°
2026-05-05 07:57 48.23825 18.13773 21088 ft 372 kts 132°
2026-05-05 07:57 48.22119 18.16672 20534 ft 369 kts 133°
2026-05-05 07:57 48.20410 18.19517 19978 ft 365 kts 133°
2026-05-05 07:57 48.18706 18.22324 19426 ft 362 kts 133°
2026-05-05 07:58 48.17024 18.25099 18874 ft 358 kts 133°
2026-05-05 07:58 48.15359 18.27858 18326 ft 354 kts 133°
2026-05-05 07:58 48.13717 18.30586 17788 ft 350 kts 133°
2026-05-05 07:58 48.12639 18.32377 17423 ft 348 kts 133°
2026-05-05 07:59 48.11024 18.35056 16859 ft 344 kts 134°
2026-05-05 07:59 48.09426 18.37695 16322 ft 340 kts 134°
2026-05-05 07:59 48.07844 18.40304 15783 ft 337 kts 134°
2026-05-05 07:59 48.06265 18.42908 15238 ft 337 kts 134°
2026-05-05 08:00 48.04691 18.45502 14681 ft 337 kts 134°
2026-05-05 08:00 48.03118 18.48093 14125 ft 335 kts 134°
2026-05-05 08:00 48.01558 18.50658 13581 ft 332 kts 134°
2026-05-05 08:00 48.00012 18.53198 13020 ft 329 kts 134°
2026-05-05 08:01 47.98483 18.55711 12471 ft 325 kts 134°
2026-05-05 08:01 47.96861 18.58020 11918 ft 320 kts 144°
2026-05-05 08:01 47.95079 18.59974 11384 ft 315 kts 145°
2026-05-05 08:01 47.93335 18.61851 10851 ft 311 kts 146°
2026-05-05 08:02 47.91593 18.63709 10308 ft 305 kts 146°
2026-05-05 08:02 47.89907 18.65506 10149 ft 288 kts 146°
2026-05-05 08:02 47.88303 18.67223 10061 ft 281 kts 146°
2026-05-05 08:02 47.86716 18.68922 9938 ft 280 kts 146°
2026-05-05 08:03 47.85121 18.70628 9601 ft 285 kts 146°
2026-05-05 08:03 47.83521 18.72337 9169 ft 280 kts 146°
2026-05-05 08:03 47.81948 18.74017 8758 ft 276 kts 146°
2026-05-05 08:03 47.80403 18.75666 8365 ft 271 kts 146°
2026-05-05 08:04 47.78865 18.77305 7977 ft 273 kts 146°
2026-05-05 08:04 47.77323 18.78948 7593 ft 272 kts 146°
2026-05-05 08:04 47.75790 18.80580 7190 ft 271 kts 146°
2026-05-05 08:04 47.74266 18.82201 6807 ft 268 kts 146°
2026-05-05 08:05 47.72760 18.83804 6410 ft 264 kts 146°
2026-05-05 08:05 47.71276 18.85382 6026 ft 261 kts 146°
2026-05-05 08:05 47.69803 18.86944 5660 ft 261 kts 146°
2026-05-05 08:05 47.68324 18.88510 5296 ft 261 kts 146°
2026-05-05 08:06 47.66876 18.90046 5160 ft 249 kts 146°
2026-05-05 08:06 47.65505 18.91501 5055 ft 237 kts 146°
2026-05-05 08:06 47.64210 18.92871 4946 ft 226 kts 146°
2026-05-05 08:06 47.62959 18.94195 4859 ft 219 kts 146°
2026-05-05 08:07 47.61701 18.95523 4803 ft 221 kts 146°
2026-05-05 08:07 47.60473 18.96874 4698 ft 222 kts 141°
2026-05-05 08:07 47.60092 18.97389 3165 ft 49 kts 134°
2026-05-05 08:07 47.59077 18.98554 884 ft 199 kts 140°
2026-05-05 08:08 47.58219 18.99898 1767 ft 187 kts 126°
2026-05-05 08:08 47.57419 19.01642 1931 ft 206 kts 124°
2026-05-05 08:08 47.56629 19.03440 2007 ft 213 kts 128°
2026-05-05 08:08 47.55591 19.04958 1917 ft 212 kts 141°
2026-05-05 08:09 47.54492 19.06454 1779 ft 216 kts 136°
2026-05-05 08:09 47.53439 19.08013 1797 ft 226 kts 133°
2026-05-05 08:09 47.52372 19.09863 2045 ft 241 kts 130°
2026-05-05 08:09 47.51275 19.11718 2456 ft 234 kts 132°
2026-05-05 08:10 47.50222 19.13450 2028 ft 227 kts 132°
2026-05-05 08:10 47.49219 19.15128 1633 ft 207 kts 134°
2026-05-05 08:10 47.48280 19.16569 1371 ft 181 kts 135°
2026-05-05 08:10 47.47461 19.17847 1277 ft 164 kts 132°
2026-05-05 08:11 47.46713 19.19126 1062 ft 160 kts 133°
2026-05-05 08:11 47.45957 19.20325 800 ft 159 kts 133°
2026-05-05 08:11 47.45213 19.21508 612 ft 153 kts 132°
2026-05-05 08:11 47.44524 19.22636 499 ft 143 kts 133°
2026-05-05 08:12 47.43935 19.23587 482 ft 97 kts 131°
2026-05-05 08:12 47.43545 19.24222 485 ft 71 kts 132°
2026-05-05 08:12 47.43286 19.24638 484 ft 46 kts 133°
2026-05-05 08:12 47.43150 19.24856 486 ft 20 kts 133°
2026-05-05 08:13 47.43097 19.24987 484 ft 14 kts 88°
2026-05-05 08:13 47.43139 19.25110 490 ft 14 kts 45°
2026-05-05 08:13 47.43216 19.25214 478 ft 16 kts 42°
2026-05-05 08:13 47.43295 19.25322 485 ft 14 kts 42°
2026-05-05 08:14 47.43336 19.25428 475 ft 11 kts 103°
2026-05-05 08:14 47.43288 19.25520 473 ft 12 kts 132°
2026-05-05 08:14 47.43233 19.25609 474 ft 12 kts 131°
2026-05-05 08:14 47.43179 19.25701 476 ft 12 kts 131°
2026-05-05 08:15 47.43134 19.25794 481 ft 10 kts 101°
2026-05-05 08:15 47.43142 19.25889 476 ft 9 kts 81°
2026-05-05 08:15 47.43146 19.25921 483 ft 0 kts 81°